Location: Ertinghausen
(51.6624°N, 9.7874°E)
Time: 19:58:41
(UTC+00:00)

CZ-2C R/B - Pass Details

Date: 22 August 2024
Orbit: 703 x 904 km, 98.2° (Epoch: 07 September)

Event Time Altitude Azimuth Distance (km) Brightness Sun altitude
Rises 02:46:36 0° 7° (N) 3,267 7.0 -13.1°
Reaches altitude 10° 02:49:09 10° 356° (N) 2,368 6.0 -12.8°
Maximum altitude 02:53:30 27° 300° (WNW) 1,527 4.3 -12.2°
Enters shadow 02:56:59 15° 251° (WSW) 2,149 4.7 -11.8°
